Content
SEND FEEDBACK

Daily
Averages
Monthly
Summary
United States of America

PUT IN BAY, OHIO


Home > North America > United States > Ohio
Elevation: 171 meters     Latitude: 41 39N     Longitude: 082 48W

WEATHER
 
SELECT A DAY
Number of Records: 124,957;   Date Range: 12/10/00 - 10/29/14
 
SHARE

PRINT THIS DATA

[ ← Previous Day ]
WEATHER ALMANAC - 5 MARCH, 2013
[ Next Day → ]
[ °F ]   °C
Weather ElementAverageHighLow
Temperature-2.7 °C-0.1 °C (4:00 pm)-6.2 °C (6:00 am)
Dewpoint-5.9 °C-4.5 °C (3:00 pm)-7.9 °C (6:00 am)
Humidity77.7 %88 % (5:00 am)63 % (1:00 pm)
Barometer1015.6 hPa1021 hPa (1:00 am)1009.5 hPa (10:00 pm)
Wind Speed14.5 km/h25.9 km/h (7:00 pm)
Wind Gust38.9 km/h (7:00 pm)
Weather ElementAverage
Wind DirectionENE (67.2 °)

Weather ElementTotal
Precipitation---
Heating Degree Days21.5 (Base 18.3)
Averaged from 25 records on 5 March, 2013
WEATHER CONDITIONS BREAKOUT
WIND DIRECTION BREAKOUT
WEATHER BY HOUR - 5 MARCH, 2013
[ °F ]   °C
Local TimeTemperatureDewpointHumidityBarometerVisibilityWind DirectionWind SpeedGust SpeedPrecipitationEventsConditions
1:00 AM-4.4 °C-6.7 °C76 %1021 hPaNE (50°)7.4 km/h
1:00 AM-4.4 °C-6.9 °C83 %1021 hPaNE (50°)7.4 km/h
2:00 AM-4.7 °C-7.3 °C82 %1020.7 hPaNE (50°)5.6 km/h
3:00 AM-5.3 °C-7.5 °C85 %1020.3 hPaENE (70°)5.6 km/h
5:00 AM-6 °C-7.7 °C88 %1019.6 hPaENE (70°)7.4 km/h
6:00 AM-6.2 °C-7.9 °C88 %1019.6 hPaENE (70°)7.4 km/h
7:00 AM-5.6 °C-7.8 °C80 %1019.3 hPaENE (70°)9.3 km/h
8:00 AM-4.7 °C-6.7 °C86 %1018.6 hPaENE (70°)13 km/h
9:00 AM-3.9 °C-6.3 °C84 %1019 hPaEast (80°)7.4 km/h
10:00 AM-3.1 °C-5.1 °C86 %1018.6 hPaEast (100°)7.4 km/h
11:00 AM-2.9 °C-5.4 °C83 %1017.9 hPaEast (80°)9.3 km/h
12:00 PM-2.1 °C-5.5 °C78 %1017.3 hPaEast (100°)9.3 km/h
1:00 PM-1.2 °C-5.4 °C73 %1015.9 hPaENE (70°)20.4 km/h29.6 km/h
1:00 PM-1.1 °C-5.6 °C63 %1015.9 hPaENE (70°)20.4 km/h
2:00 PM-0.3 °C-5.2 °C70 %1014.2 hPaENE (70°)18.5 km/h35.2 km/h
3:00 PM-0.2 °C-4.5 °C73 %1013.2 hPaENE (70°)20.4 km/h31.5 km/h
4:00 PM-0.1 °C-5 °C70 %1012.5 hPaENE (70°)16.7 km/h29.6 km/h
5:00 PM-0.6 °C-5.2 °C71 %1011.2 hPaEast (80°)14.8 km/h
6:00 PM-1.2 °C-5.8 °C71 %1011.5 hPaEast (80°)13 km/h
7:00 PM-1.3 °C-5.3 °C75 %1011.2 hPaENE (60°)25.9 km/h38.9 km/h
7:00 PM-1.1 °C-5.6 °C64 %1011.2 hPaENE (60°)25.9 km/h
8:00 PM-1.3 °C-4.7 °C78 %1010.2 hPaNE (50°)24.1 km/h35.2 km/h
9:00 PM-1.1 °C-4.5 °C78 %1009.8 hPaNE (50°)24.1 km/h37 km/h
10:00 PM-1.3 °C-4.6 °C79 %1009.5 hPaNE (50°)22.2 km/h31.5 km/h
11:00 PM-1.9 °C-5.1 °C79 %1009.8 hPaNE (40°)20.4 km/h33.3 km/h
Hourly data recorded from CXHA, located 0 kilometers away from Put In Bay, Ohio







STORIES FROM OUR PARTNERS